Temperature
20 20 20 20 20 20 20 20 20 20 20 20 20 20 20 20 20 20 20 20 20 20 20 20 20 20 20 19 19 19 19 19 19 19 19 19 18 18 18 18 18 18 19
20 20 20 20 20 20 20 20 20 20 20 20 20 20 20 20 20 20 20 20 20 20 20 19 19 19 19 19 19 19 19 19 19 19 19 19 19 18 18 18 18 18 18
20 20 20 20 20 20 20 20 20 20 20 20 20 20 19 19 19 19 19 20 20 19 19 19 19 19 19 19 19 19 19 19 19 19 19 19 19 18 18 18 18 18 18
20 20 20 20 20 20 20 20 20 20 20 20 20 19 19 19 19 19 19 19 19 19 19 19 19 19 19 19 19 19 19 19 19 19 19 19 19 18 18 18 18 18 18
20 20 20 20 20 20 20 20 20 20 20 20 19 19 19 19 19 19 19 19 19 19 19 19 19 19 19 19 19 19 19 19 19 19 19 19 19 18 18 18 18 18 18
20 20 20 20 20 20 20 19 19 19 19 19 19 19 19 19 19 19 19 19 19 19 19 19 19 19 19 19 19 19 19 18 18 18 19 19 18 18 18 18 18 18 18
19 19 19 19 19 19 19 19 19 19 19 19 19 19 19 19 19 19 19 19 19 19 19 19 19 19 19 18 18 18 18 18 18 18 18 18 18 18 18 18 18 18 18
18 19 19 19 19 19 19 19 19 19 19 19 19 19 19 19 19 19 19 19 19 19 19 19 19 18 18 18 18 18 18 18 18 18 18 18 18 18 18 18 18 18 18
18 18 18 18 18 18 18 19 19 19 19 19 19 19 19 19 19 19 19 19 19 19 19 19 19 18 18 18 18 18 18 18 18 18 18 18 18 18 18 18 18 18 18
18 18 18 18 18 18 18 18 18 18 19 19 19 19 19 19 19 19 19 19 19 19 19 19 18 18 18 18 18 18 18 18 18 18 18 18 18 18 18 18 18 18 18
17 17 17 17 17 17 18 18 18 18 18 18 18 18 18 18 18 18 18 18 18 18 18 18 18 18 18 18 18 18 18 18 18 18 18 18 18 18 18 18 18 18 18
17 17 17 17 17 17 17 17 18 18 18 18 18 18 18 18 18 18 18 18 18 18 18 18 18 18 18 18 18 18 18 18 18 18 18 18 18 18 18 18 18 18 18
17 17 17 17 17 17 17 17 17 17 17 18 18 18 18 18 18 18 18 18 18 18 18 18 18 18 18 18 18 18 18 18 18 18 18 17 18 18 18 18 18 18 18
16 16 16 16 16 16 17 17 17 17 17 17 17 18 18 18 18 18 18 18 18 18 18 18 18 18 18 18 18 18 18 18 18 18 18 17 17 17 18 18 17 18 18
16 16 16 16 16 16 16 16 16 16 17 17 17 17 17 17 17 17 18 18 18 18 18 18 18 18 18 18 18 18 18 18 18 18 18 17 17 17 17 17 17 17 17
15 15 15 15 15 15 16 16 16 16 16 16 17 17 17 17 17 17 17 18 18 18 18 18 18 18 18 18 18 18 18 18 18 18 18 17 17 17 17 17 17 17 17
14 14 15 15 15 15 15 15 15 15 16 16 16 16 17 17 17 17 17 17 18 18 18 18 17 17 17 18 18 18 18 18 18 18 18 18 18 17 17 17 17 17 17
14 14 14 14 14 14 14 15 15 15 15 15 15 16 16 16 16 17 17 17 17 17 17 17 17 17 17 17 18 18 18 18 18 18 18 18 18 18 17 17 17 17 17
13 13 13 13 13 14 14 14 14 14 14 15 15 15 15 16 16 16 16 17 17 17 17 17 17 17 17 17 17 18 18 18 18 18 18 18 18 18 17 17 17 17 17
13 13 13 13 13 13 14 14 14 14 14 14 14 15 15 15 15 16 16 16 16 17 17 17 17 17 17 17 17 17 18 18 18 18 18 18 18 18 17 17 17 17 17
13 13 13 13 13 13 13 13 14 14 14 14 14 14 14 15 15 15 16 16 16 16 16 17 17 17 17 17 17 17 17 18 18 18 18 18 18 18 17 17 17 17 17
12 12 12 13 13 13 13 13 13 13 13 13 14 14 14 14 14 15 15 15 16 16 16 16 16 17 17 16 16 17 17 17 17 18 18 18 18 18 17 17 17 17 17
12 12 12 12 12 12 12 12 12 13 13 13 13 13 14 14 14 14 15 15 15 15 16 16 16 16 16 16 16 16 17 17 17 18 18 18 18 18 17 17 17 17 17
12 12 12 12 12 12 12 12 12 12 12 12 12 13 13 14 14 14 14 15 15 15 15 15 16 16 16 16 16 16 16 16 17 17 17 18 18 18 18 17 17 17 17
12 12 12 12 12 12 12 12 12 12 12 12 12 13 13 13 13 14 14 14 14 15 15 15 15 15 15 16 16 16 16 16 16 17 17 17 18 18 17 17 17 17 17
12 12 12 12 12 12 12 12 12 12 12 12 12 12 13 13 13 13 14 14 14 14 14 15 15 15 15 15 15 15 16 16 16 16 17 17 17 18 17 17 17 17 17
Wind_Speed
4 6 10 12 12 11 11 11 11 12 12 12 12 12 11 11 10 9 9 8 7 7 6 6 6 6 7 7 8 8 8 8 9 9 9 8 8 8 9 9 8 8 9
6 8 11 12 12 11 11 11 10 11 10 10 10 10 10 10 9 8 8 7 7 6 5 5 5 5 6 6 7 7 7 7 7 8 8 7 8 8 8 8 7 7 8
6 8 10 12 12 11 11 10 10 10 9 9 9 9 9 8 8 8 7 7 6 6 5 5 4 4 5 6 6 6 6 6 6 7 7 6 6 7 7 7 7 8 8
7 8 9 11 11 11 10 10 10 9 9 9 8 8 8 8 7 7 6 6 6 5 5 4 3 3 4 4 5 6 6 6 6 6 5 5 4 6 7 7 7 7 7
6 6 8 10 10 10 10 10 9 9 8 8 8 8 8 8 7 7 6 6 5 5 5 4 3 2 2 3 4 5 6 6 6 6 5 4 4 6 6 6 6 6 7
4 5 7 9 9 9 9 9 9 9 9 8 8 8 8 8 7 7 7 6 6 5 4 4 3 2 2 2 3 4 4 5 6 5 4 4 3 5 6 6 5 6 6
1 2 4 7 9 9 9 9 9 9 9 9 9 9 9 8 8 8 8 7 6 6 5 4 4 3 2 1 1 2 3 3 5 4 4 3 3 5 5 5 5 6 6
5 5 4 3 5 7 8 9 9 9 9 9 9 9 9 9 9 9 8 8 7 7 6 5 5 4 3 2 1 1 2 2 4 3 3 3 3 4 5 5 6 6 6
7 6 7 7 5 5 6 8 9 10 11 10 10 10 10 10 9 9 9 9 8 8 7 7 6 6 5 3 2 1 1 1 3 3 4 4 3 4 5 6 6 6 6
7 6 7 8 8 8 7 8 9 11 12 12 12 12 11 11 11 10 10 10 10 9 9 8 8 7 6 5 4 3 1 0 2 3 4 5 5 5 5 5 6 6 6
6 5 5 5 7 8 8 8 9 10 11 11 12 12 12 11 11 10 11 11 11 11 10 10 9 8 7 6 5 4 2 1 2 4 5 6 7 6 6 6 6 6 6
6 5 4 4 5 6 7 8 8 8 8 8 8 9 10 10 11 11 11 13 13 13 12 12 11 9 8 5 4 3 2 3 3 4 6 7 7 7 7 6 6 6 6
4 5 6 5 5 5 5 6 6 6 6 6 7 8 8 8 9 9 9 11 12 12 11 10 9 8 6 5 4 3 4 4 5 6 6 8 8 8 8 7 7 7 7
6 6 6 5 5 5 5 5 4 4 5 5 6 7 6 4 5 6 6 8 9 9 8 8 7 7 7 7 6 5 5 5 6 7 8 9 9 9 9 9 8 8 7
7 8 8 6 5 5 4 4 4 3 5 6 7 7 7 4 4 5 5 7 8 9 7 6 6 6 6 6 7 7 6 8 8 8 9 10 10 10 10 10 9 9 8
8 9 8 8 6 5 4 4 4 5 6 6 6 8 8 7 5 4 5 5 6 8 9 7 6 6 5 5 5 6 7 8 9 10 10 11 12 12 11 11 11 10 10
8 8 8 8 6 6 6 5 5 6 6 5 6 8 8 8 7 5 5 6 6 8 7 6 6 5 5 5 6 6 6 8 8 10 11 10 10 12 12 12 11 11 11
8 8 9 9 9 8 7 6 5 6 6 5 6 7 8 8 8 5 5 6 6 6 5 5 4 4 5 5 4 4 4 5 7 9 10 10 10 10 11 12 12 12 11
8 8 8 8 8 8 8 6 6 6 5 6 6 6 7 7 7 5 5 5 5 4 5 6 4 4 4 4 4 4 4 4 5 7 7 10 11 11 11 12 13 13 12
7 8 8 8 8 8 7 6 5 5 4 4 5 5 7 6 6 5 4 4 4 4 5 5 5 4 3 4 4 3 2 3 4 5 7 7 9 10 11 10 10 11 12
8 9 9 9 9 7 5 5 5 5 5 4 4 5 6 6 5 4 4 4 4 5 6 7 5 5 4 3 2 1 2 1 2 3 4 5 6 9 10 10 10 10 10
8 9 9 9 9 8 6 5 4 5 4 4 4 5 6 6 5 4 4 4 4 5 6 7 6 4 4 5 4 2 1 2 2 3 3 5 6 6 8 10 11 11 11
9 9 9 9 9 9 8 6 5 4 3 3 4 4 4 6 5 4 4 4 4 5 6 7 7 8 6 5 5 4 4 5 2 2 3 4 5 5 6 7 10 12 12
9 9 9 9 9 8 7 6 7 5 4 4 4 4 5 5 5 4 4 4 5 4 5 6 7 6 6 5 4 4 3 3 4 2 2 2 4 6 6 6 8 11 12
8 8 8 9 9 8 8 7 7 6 5 5 5 5 5 5 4 4 4 4 4 4 5 6 6 7 6 6 5 4 3 2 2 3 3 2 2 3 5 6 5 7 11
7 8 8 9 9 9 9 8 7 7 7 7 6 6 6 5 4 5 4 4 4 4 5 6 6 7 7 7 6 5 5 4 4 4 3 3 3 3 3 4 5 5 8
Wind_Direction
184 181 168 159 158 156 154 150 146 142 140 138 138 138 138 138 138 137 135 133 131 125 119 113 106 99 94 90 88 87 87 85 82 80 79 78 86 96 101 103 103 103 104
157 168 170 166 164 163 161 158 155 150 148 147 146 146 146 146 146 146 146 144 141 136 133 126 115 106 97 91 89 85 85 89 89 86 80 75 83 94 102 108 110 113 112
141 158 166 170 170 170 169 167 165 161 158 157 156 157 157 157 156 156 156 155 153 151 147 142 131 116 102 93 88 80 78 90 103 99 85 70 77 94 104 112 116 116 116
145 153 164 172 173 175 175 174 173 171 170 168 168 169 169 168 167 166 167 167 166 164 160 157 152 132 110 96 86 76 77 87 105 108 90 75 78 98 105 109 114 117 120
143 155 171 175 176 178 180 182 181 180 179 179 179 179 180 178 179 180 180 181 180 178 176 172 171 155 123 100 84 76 79 88 101 108 102 90 86 103 105 108 114 118 123
142 161 182 183 182 184 186 188 188 187 188 189 189 187 186 186 190 192 192 191 191 192 191 187 190 185 157 110 81 74 79 94 109 115 114 107 100 110 109 107 112 117 120
100 155 203 197 195 196 198 197 197 197 198 199 200 198 196 197 199 200 200 200 201 204 206 206 211 212 206 166 65 66 80 106 126 132 139 131 124 120 116 114 114 119 119
46 32 1 275 233 222 215 212 211 211 211 211 211 210 209 209 208 208 209 209 210 210 213 216 224 230 233 244 306 30 65 105 137 153 168 167 154 134 125 122 118 118 117
43 31 12 357 331 293 262 243 233 227 224 223 222 221 220 218 217 217 218 218 219 218 218 222 230 237 244 252 269 294 3 108 155 187 189 195 185 154 139 126 121 120 120
35 21 8 359 349 333 310 279 261 247 238 232 230 229 227 226 227 228 226 226 227 224 225 228 232 238 245 252 262 273 289 115 197 210 210 209 199 175 155 141 129 125 122
31 15 4 348 338 330 317 299 289 277 262 251 246 242 237 232 231 234 233 232 234 233 232 232 235 240 245 252 263 271 269 219 237 235 227 220 205 188 170 157 142 133 128
10 357 354 340 329 326 319 316 312 306 300 281 264 257 249 237 232 234 236 239 239 238 238 236 236 239 244 246 264 281 263 238 245 244 238 229 213 198 183 170 158 146 139
351 348 343 332 327 327 320 318 311 307 304 296 277 262 251 242 238 237 234 241 246 245 240 239 239 233 226 227 239 250 251 246 247 245 245 237 223 207 194 184 175 164 156
354 345 336 329 325 326 322 313 302 303 297 289 284 274 255 240 232 229 229 229 231 236 230 224 222 222 221 224 229 237 244 243 244 244 245 241 231 216 203 193 186 176 169
353 343 336 328 324 323 320 313 316 298 286 285 288 281 259 246 241 231 231 229 226 224 222 217 217 217 217 222 226 229 235 240 241 240 242 239 232 223 212 201 194 187 181
343 336 331 326 326 329 316 304 299 298 295 287 278 277 276 257 247 238 236 231 227 223 221 216 214 215 216 214 224 226 231 236 236 234 234 234 230 225 218 209 201 194 189
332 329 330 328 337 327 315 305 307 298 297 287 278 276 276 266 252 243 239 236 228 221 216 214 214 212 217 218 230 231 228 228 228 225 224 224 223 222 220 214 207 200 195
331 331 329 335 332 323 313 304 302 299 297 288 285 278 271 265 253 241 238 240 228 215 206 204 202 204 219 219 227 234 228 221 224 221 215 212 210 213 218 216 209 205 203
330 328 327 327 327 325 320 312 303 300 295 291 289 282 276 270 257 239 233 236 226 214 210 214 200 191 210 222 231 235 230 224 220 215 206 205 204 205 210 216 213 208 207
330 330 329 329 330 329 326 322 314 307 296 294 289 289 289 283 271 251 241 237 225 222 219 208 198 194 196 207 236 241 240 234 214 208 208 203 202 204 207 211 212 212 211
337 338 334 335 334 337 334 331 322 315 309 304 296 297 297 290 280 255 251 241 224 222 221 210 195 197 199 165 159 261 311 279 221 217 204 195 200 204 203 206 204 204 211
332 333 334 336 333 335 329 313 290 288 292 288 297 307 303 297 287 267 241 238 228 226 225 215 196 185 192 177 168 158 220 286 271 231 204 206 207 198 203 207 203 201 203
333 332 336 331 331 331 333 327 322 318 313 321 323 317 310 307 294 276 260 245 232 223 225 219 208 193 193 188 183 169 171 208 226 254 218 208 197 196 205 203 205 205 204
328 329 333 333 333 333 337 341 342 339 325 310 311 306 310 313 310 297 277 253 238 229 228 225 216 207 189 187 190 201 183 158 167 201 263 217 200 203 204 206 206 206 206
325 331 335 337 339 339 342 344 342 336 322 317 319 322 325 324 315 312 296 271 251 238 232 226 218 208 200 192 184 181 180 174 176 167 193 205 208 213 205 204 201 201 204
327 334 338 342 340 343 346 347 346 339 334 334 337 337 333 328 322 322 310 289 269 252 238 230 221 210 209 203 197 187 174 173 185 172 172 182 198 209 201 197 199 197 198
Height
1541 1543 1545 1546 1548 1550 1551 1552 1553 1554 1555 1556 1556 1557 1557 1557 1558 1558 1558 1558 1559 1559 1559 1559 1559 1559 1559 1558 1558 1558 1558 1558 1557 1557 1557 1556 1556 1556 1556 1556 1556 1556 1557
1542 1543 1545 1547 1549 1550 1552 1553 1554 1555 1556 1556 1557 1557 1557 1558 1558 1558 1559 1559 1559 1559 1559 1559 1560 1559 1559 1559 1559 1559 1559 1559 1558 1558 1558 1557 1557 1557 1557 1557 1557 1557 1557
1543 1544 1546 1547 1549 1551 1552 1553 1554 1555 1556 1556 1557 1557 1557 1558 1558 1558 1558 1559 1559 1559 1559 1560 1560 1560 1560 1560 1560 1560 1560 1560 1560 1559 1559 1558 1558 1558 1558 1558 1558 1558 1558
1544 1546 1547 1548 1550 1551 1552 1553 1554 1555 1555 1556 1556 1557 1557 1557 1558 1558 1558 1558 1559 1559 1559 1560 1560 1560 1560 1560 1561 1561 1561 1561 1560 1560 1560 1559 1559 1559 1559 1559 1559 1559 1559
1546 1547 1548 1549 1550 1551 1552 1553 1554 1554 1555 1555 1556 1556 1556 1557 1557 1557 1558 1558 1558 1559 1559 1559 1560 1560 1560 1560 1561 1561 1561 1561 1561 1561 1560 1560 1560 1559 1559 1559 1559 1560 1560
1547 1548 1549 1550 1551 1552 1552 1553 1554 1554 1554 1555 1555 1555 1555 1556 1556 1556 1557 1557 1558 1558 1558 1559 1559 1560 1560 1560 1560 1561 1561 1561 1561 1561 1561 1560 1560 1560 1560 1560 1560 1560 1560
1549 1550 1551 1551 1552 1552 1552 1553 1553 1553 1554 1554 1554 1554 1555 1555 1555 1555 1556 1556 1557 1557 1558 1558 1559 1559 1559 1560 1560 1560 1561 1561 1561 1561 1561 1561 1561 1561 1560 1560 1561 1561 1561
1549 1550 1550 1551 1551 1552 1552 1552 1552 1552 1553 1553 1553 1553 1554 1554 1554 1554 1555 1555 1556 1556 1556 1557 1558 1558 1559 1559 1560 1560 1561 1561 1561 1562 1562 1561 1561 1561 1561 1561 1561 1561 1562
1549 1550 1550 1550 1551 1551 1551 1551 1551 1551 1551 1552 1552 1552 1552 1552 1553 1553 1553 1554 1554 1555 1555 1556 1556 1557 1558 1558 1559 1559 1560 1561 1561 1562 1562 1562 1561 1561 1561 1561 1562 1562 1562
1549 1549 1549 1549 1549 1549 1549 1549 1549 1549 1549 1550 1550 1550 1550 1551 1551 1551 1552 1552 1553 1553 1554 1554 1555 1556 1557 1557 1558 1558 1559 1560 1561 1561 1562 1562 1561 1561 1561 1562 1562 1562 1563
1549 1549 1549 1549 1548 1547 1547 1547 1547 1547 1547 1547 1547 1548 1548 1548 1549 1549 1550 1550 1551 1552 1552 1553 1553 1554 1555 1556 1556 1557 1558 1559 1560 1561 1561 1561 1561 1561 1561 1562 1562 1563 1563
1550 1549 1548 1547 1546 1545 1544 1544 1544 1543 1543 1544 1544 1545 1545 1546 1546 1547 1547 1548 1549 1549 1550 1551 1551 1552 1553 1554 1555 1556 1557 1558 1559 1560 1561 1561 1561 1561 1561 1562 1562 1563 1564
1550 1548 1547 1546 1544 1543 1541 1540 1540 1540 1540 1540 1541 1542 1542 1543 1543 1544 1544 1545 1546 1547 1548 1548 1549 1550 1551 1552 1553 1554 1555 1557 1558 1559 1560 1560 1561 1561 1561 1561 1562 1563 1564
1549 1548 1546 1544 1542 1541 1539 1538 1537 1537 1537 1537 1537 1538 1539 1539 1540 1541 1541 1542 1543 1544 1545 1546 1547 1548 1549 1550 1551 1552 1554 1555 1557 1558 1559 1560 1560 1560 1560 1561 1562 1563 1564
1548 1546 1544 1542 1540 1538 1537 1535 1534 1533 1533 1532 1533 1533 1534 1535 1536 1537 1538 1539 1540 1541 1542 1543 1544 1545 1546 1548 1549 1550 1552 1553 1555 1556 1558 1558 1559 1559 1560 1560 1561 1562 1563
1546 1544 1542 1539 1537 1535 1533 1532 1531 1530 1529 1529 1529 1529 1530 1530 1531 1532 1533 1535 1536 1538 1539 1540 1541 1543 1544 1545 1547 1548 1550 1552 1553 1555 1556 1557 1558 1558 1559 1559 1560 1561 1563
1544 1542 1539 1536 1534 1532 1530 1528 1527 1526 1525 1525 1524 1525 1525 1526 1527 1528 1529 1530 1532 1534 1535 1536 1538 1539 1541 1542 1544 1546 1548 1549 1551 1553 1554 1555 1556 1557 1557 1558 1559 1560 1562
1543 1539 1536 1533 1531 1529 1526 1524 1523 1521 1521 1520 1520 1520 1521 1521 1522 1523 1524 1526 1527 1529 1531 1532 1534 1535 1537 1539 1541 1543 1545 1547 1549 1550 1552 1553 1554 1555 1556 1557 1558 1559 1560
1541 1537 1534 1531 1528 1526 1523 1521 1519 1517 1516 1516 1516 1516 1517 1517 1517 1518 1519 1521 1523 1524 1526 1528 1530 1531 1534 1536 1538 1540 1542 1544 1546 1548 1549 1551 1552 1554 1555 1555 1556 1557 1559
1540 1536 1533 1530 1526 1523 1521 1518 1516 1514 1513 1512 1512 1512 1512 1512 1513 1513 1515 1516 1517 1519 1521 1523 1525 1527 1529 1532 1535 1537 1539 1541 1542 1544 1546 1548 1550 1551 1553 1554 1555 1556 1557
1539 1535 1531 1528 1525 1521 1518 1515 1513 1511 1510 1509 1508 1508 1508 1508 1508 1509 1510 1511 1512 1514 1516 1518 1520 1522 1525 1528 1531 1532 1535 1536 1538 1540 1543 1545 1547 1549 1550 1552 1553 1554 1555
1538 1534 1530 1527 1523 1520 1517 1514 1511 1508 1507 1506 1505 1504 1504 1504 1504 1505 1505 1507 1508 1509 1511 1513 1515 1517 1519 1522 1525 1528 1530 1533 1533 1536 1538 1541 1543 1545 1547 1549 1551 1552 1553
1537 1533 1530 1526 1522 1519 1516 1512 1509 1507 1505 1503 1502 1501 1501 1501 1501 1501 1501 1502 1503 1505 1506 1507 1509 1512 1514 1517 1520 1523 1525 1526 1528 1531 1533 1536 1539 1541 1544 1546 1548 1549 1551
1537 1534 1530 1526 1522 1519 1515 1511 1508 1505 1503 1501 1500 1499 1498 1498 1497 1497 1497 1498 1499 1500 1501 1502 1504 1506 1509 1511 1514 1517 1520 1521 1524 1525 1528 1531 1534 1536 1539 1542 1544 1546 1548
1538 1534 1530 1526 1522 1519 1515 1511 1508 1505 1503 1500 1499 1497 1496 1495 1495 1494 1494 1494 1494 1495 1496 1498 1499 1501 1503 1505 1508 1510 1513 1516 1519 1521 1523 1525 1528 1531 1534 1537 1540 1542 1545
1538 1534 1530 1526 1523 1519 1515 1511 1508 1505 1502 1499 1497 1496 1494 1493 1492 1492 1491 1490 1490 1491 1492 1493 1494 1496 1498 1500 1502 1505 1507 1510 1513 1516 1519 1521 1523 1526 1529 1532 1535 1538 1540